Regional Weather Roundup
Issued by NWS

Home | Current Version | Previous Version | Text Only | Print | Product List | Glossary On
Versions: 1 2 3 4 5 6 7 8 9 10 11 12 13 14 15 16 17 18 19 20 21 22 23 24 25 26 27 28 29 30 31 32 33 34 35 36 37 38 39 40 41 42 43 44 45 46 47 48 49 50
000
ASUS43 KBIS 221902
RWRND

NORTH DAKOTA REGIONAL WEATHER ROUNDUP
NATIONAL WEATHER SERVICE BISMARCK ND
200 PM CDT SAT JUL 22 2017

NOTE: "FAIR" INDICATES FEW OR NO CLOUDS BELOW 12,000 FEET WITH NO
SIGNIFICANT WEATHER AND/OR OBSTRUCTIONS TO VISIBILITY.


NDZ001>003-009>011-017-222000-
NORTHWEST NORTH DAKOTA

CITY           SKY/WX    TMP DP  RH WIND       PRES   REMARKS
WILLISTON      SUNNY     81  49  32 NW22      30.01S
MINOT          PTSUNNY   81  51  35 NW23      29.93R
MINOT AFB      MOSUNNY   77  51  39 NW18G29   29.92S
$$

NDZ018>021-031>035-040>046-222000-
SOUTHWEST NORTH DAKOTA

CITY           SKY/WX    TMP DP  RH WIND       PRES   REMARKS
BISMARCK       SUNNY     89  46  22 NW17G30   29.93F
DICKINSON      SUNNY     85  45  24 NW25G33   30.00S
GARRISON         N/A     81  50  33 NW23G35   29.94S
HETTINGER ARPT SUNNY     86  42  21 NW20G28   30.05S
$$

NDZ004>008-012>016-024-026-027-054-222000-
NORTHEAST NORTH DAKOTA

CITY           SKY/WX    TMP DP  RH WIND       PRES   REMARKS
GRAND FORKS    SUNNY     81  55  40 NW17G25   29.83S
GRND FRKS AFB  SUNNY     79  58  48 NW13      29.85S
DEVILS LAKE    SUNNY     76  56  49 W15       29.91S
$$

NDZ022-023-025-028>030-036>039-047>053-222000-
SOUTHEAST NORTH DAKOTA

CITY           SKY/WX    TMP DP  RH WIND       PRES   REMARKS
FARGO          SUNNY     85  54  34 NW15G24   29.85S
JAMESTOWN      SUNNY     82  53  36 NW13      29.91S
$$





USA.gov is the U.S. government's official web portal to all federal, state and local government web resources and services.